Hourly Weather Roundup
Issued by NWS Central Illinois

Home | Current Version | Previous Version | Text Only | Print | Product List | Glossary On
Versions: 1 2 3 4 5 6 7 8 9 10 11 12 13 14 15 16 17 18 19 20 21 22 23 24 25 26 27 28 29 30 31 32 33 34 35 36 37 38 39 40 41 42 43 44 45 46 47 48 49 50
000
NZUS43 KILX 010210
HWRILX

AREA WEATHER ROUNDUP
NATIONAL WEATHER SERVICE, LINCOLN IL
900 PM CDT FRI JUL 31 2015


CITY           SKY/WX    TMP DP  RH WIND       PRES   REMARKS
BLOOMINGTON    CLEAR     78  60  53 NW10      30.02R
CHAMPAIGN      CLEAR     71  65  81 W6        30.00S
DANVILLE       CLEAR     70  64  81 W5        29.96R
DECATUR        CLEAR     80  57  45 NW7       30.01R HX  80
EFFINGHAM      CLEAR     77  67  70 CALM      30.02R
FLORA          CLEAR     76  68  76 CALM      30.01R
GALESBURG      PTCLDY    73  62  70 NW5       30.03S
JACKSONVILLE   MOCLDY    78  71  80 SW3       30.01F HX  80
LACON          CLEAR     75  60  58 CALM      29.99S
LAWRENCEVILLE  CLEAR     78  69  73 CALM      30.00R HX  80
LITCHFIELD     PTCLDY    74  68  79 W3        30.02S
$$


CITY           SKY/WX    TMP DP  RH WIND       PRES   REMARKS
LINCOLN        CLEAR     78  63  59 CALM      30.00R
MACOMB         CLEAR     72  66  80 N6        30.04S
MATTOON        CLEAR     75  65  70 CALM      30.00R
MT CARMEL AP   CLEAR     79  70  73 CALM      30.00R HX  81
OLNEY-NOBLE AP CLEAR     73  70  88 CALM      30.01R
PARIS          CLEAR     69  64  82 CALM      30.00R
PEORIA         CLEAR     78  63  59 NW3       30.01R HX  80
PONTIAC        CLEAR     71  63  76 W7        30.00R
RANTOUL        CLEAR     74  66  75 W3        29.99S
ROBINSON       CLEAR     73  68  83 CALM      30.01R
SPRINGFIELD    MOCLDY    76  71  85 N6        30.01S
TAYLORVILLE    MOCLDY    73  70  88 W6        30.01S
$$

...REGIONAL REPORTS...


CITY           SKY/WX    TMP DP  RH WIND       PRES   REMARKS
CHICAGO O`HARE PTCLDY    76  49  38 NW9       29.96R
KANKAKEE       CLEAR     76  57  52 W6        29.97S
MOLINE         CLEAR     76  56  49 NW8       30.01S
MOUNT STERLING NOT AVBL
MOUNT VERNON   CLEAR     73  64  73 CALM      30.02R
PITTSFIELD     MOCLDY    76  69  78 CALM      30.04R
QUINCY         CLOUDY    78  70  76 CALM      30.02S HX  80
ROCKFORD       PTCLDY    72  50  45 NW6       29.99R
$$


CITY           SKY/WX    TMP DP  RH WIND       PRES   REMARKS
BURLINGTON     MOCLDY    75  66  73 N7        30.03R
CEDAR RAPIDS   CLEAR     68  64  87 W6        30.02F
DES MOINES     PTCLDY    81  61  50 E6        30.03S HX  82
KIRKSVILLE     CLOUDY    78  71  79 SW3       30.04S HX  80
OTTUMWA        MOCLDY    79  66  64 N5        30.02S HX  81
ST LOUIS       PTCLDY    83  62  49 CALM      30.02S HX  84
$$


CITY           SKY/WX    TMP DP  RH WIND       PRES   REMARKS
TERRE HAUTE    CLEAR     76  58  53 W5        29.99R
EVANSVILLE     PTCLDY    79  69  71 W3        30.01R HX  81
INDIANAPOLIS   PTCLDY    74  58  57 W6        29.97R
LAFAYETTE      CLEAR     70  60  70 W7        29.96R
MADISON        CLEAR     72  50  45 CALM      29.97R
MILWAUKEE      PTCLDY    77  49  37 W9        29.94R
$$





USA.gov is the U.S. government's official web portal to all federal, state and local government web resources and services.